• Em Portugal
  • Lista de países
  • Para 7 dias
  • Temperatura da água
  • Mapas de satélite
  • Mapa do tempo
  • Widgets de tempo
  • user-avatar
    Iniciar Sessão

    Previsão horária em Klonowice

    Hoje, 20 Outubro, Sábado

    Tempo Temperatura Precipitação Vento Pressão Humidade
    00:00 +8°C° 0 mm 1 m/s 756 mmHg 74%
    01:00 +8°C° 0 mm 1 m/s 756 mmHg 75%
    02:00 +8°C° 0 mm 1 m/s 755 mmHg 75%
    03:00 +8°C° 0 mm 1 m/s 755 mmHg 74%
    04:00 +8°C° 0 mm 1 m/s 755 mmHg 74%
    05:00 +8°C° 0 mm 1 m/s 755 mmHg 75%
    06:00 +9°C° 0 mm 1 m/s 756 mmHg 77%
    07:00 +9°C° 0 mm 1 m/s 756 mmHg 78%
    08:00 +9°C° 0 mm 2 m/s 756 mmHg 73%
    09:00 +10°C° 0 mm 2 m/s 756 mmHg 68%
    10:00 +12°C° 0 mm 2 m/s 756 mmHg 64%
    11:00 +12°C° 0.1 mm 2 m/s 756 mmHg 62%
    12:00 +12°C° 0.1 mm 3 m/s 756 mmHg 61%
    13:00 +12°C° 0.1 mm 3 m/s 756 mmHg 59%
    14:00 +11°C° 0.1 mm 3 m/s 756 mmHg 62%
    15:00 +11°C° 0.1 mm 3 m/s 756 mmHg 65%
    16:00 +10°C° 0.1 mm 3 m/s 756 mmHg 67%
    17:00 +10°C° 0 mm 3 m/s 756 mmHg 71%
    18:00 +9°C° 0 mm 2 m/s 756 mmHg 74%
    19:00 +8°C° 0 mm 2 m/s 756 mmHg 78%
    20:00 +8°C° 0 mm 2 m/s 756 mmHg 82%
    21:00 +7°C° 0 mm 2 m/s 757 mmHg 86%
    22:00 +7°C° 0 mm 2 m/s 757 mmHg 89%
    23:00 +7°C° 0 mm 2 m/s 757 mmHg 91%

    Amanhã, 21 Outubro, Domingo

    Tempo Temperatura Precipitação Vento Pressão Humidade
    00:00 +6°C° 0 mm 2 m/s 757 mmHg 93%
    01:00 +7°C° 0 mm 1 m/s 757 mmHg 95%
    02:00 +7°C° 0 mm 1 m/s 757 mmHg 95%
    03:00 +7°C° 0 mm 1 m/s 757 mmHg 95%
    04:00 +7°C° 0 mm 1 m/s 757 mmHg 95%
    05:00 +7°C° 0 mm 1 m/s 757 mmHg 95%
    06:00 +7°C° 0 mm 1 m/s 758 mmHg 95%
    07:00 +7°C° 0 mm 1 m/s 758 mmHg 95%
    08:00 +8°C° 0 mm 1 m/s 758 mmHg 88%
    09:00 +10°C° 0 mm 1 m/s 758 mmHg 81%
    10:00 +12°C° 0 mm 1 m/s 759 mmHg 74%
    11:00 +13°C° 0 mm 1 m/s 759 mmHg 70%
    12:00 +13°C° 0 mm 1 m/s 758 mmHg 65%
    13:00 +14°C° 0 mm 1 m/s 758 mmHg 60%
    14:00 +14°C° 0 mm 1 m/s 758 mmHg 62%
    15:00 +13°C° 0 mm 1 m/s 758 mmHg 64%
    16:00 +13°C° 0 mm 1 m/s 758 mmHg 66%
    17:00 +12°C° 0 mm 1 m/s 758 mmHg 70%
    18:00 +11°C° 0 mm 1 m/s 758 mmHg 74%
    19:00 +10°C° 0 mm 1 m/s 758 mmHg 79%
    20:00 +8°C° 0 mm 2 m/s 758 mmHg 81%
    21:00 +8°C° 0 mm 2 m/s 758 mmHg 83%
    22:00 +8°C° 0 mm 2 m/s 758 mmHg 85%
    23:00 +7°C° 0 mm 2 m/s 757 mmHg 87%

    Depois de amanhã, 22 Outubro, Segunda-feira

    Tempo Temperatura Precipitação Vento Pressão Humidade
    00:00 +7°C° 0 mm 2 m/s 757 mmHg 88%
    01:00 +7°C° 0 mm 3 m/s 757 mmHg 89%
    02:00 +7°C° 0 mm 3 m/s 757 mmHg 90%
    03:00 +5°C° 0 mm 3 m/s 756 mmHg 90%
    04:00 +5°C° 0 mm 3 m/s 756 mmHg 91%
    05:00 +5°C° 0 mm 3 m/s 756 mmHg 91%
    06:00 +5°C° 0 mm 3 m/s 756 mmHg 91%
    07:00 +5°C° 0 mm 3 m/s 755 mmHg 90%
    08:00 +6°C° 0 mm 4 m/s 755 mmHg 84%
    09:00 +8°C° 0 mm 4 m/s 755 mmHg 77%
    10:00 +10°C° 0 mm 4 m/s 755 mmHg 71%
    11:00 +10°C° 0.2 mm 4 m/s 755 mmHg 73%
    12:00 +10°C° 0.2 mm 4 m/s 755 mmHg 75%
    13:00 +10°C° 0.2 mm 4 m/s 754 mmHg 77%
    14:00 +10°C° 0.5 mm 4 m/s 754 mmHg 79%
    15:00 +8°C° 0.5 mm 4 m/s 754 mmHg 81%
    16:00 +8°C° 0.5 mm 4 m/s 754 mmHg 83%
    17:00 +8°C° 0.2 mm 4 m/s 754 mmHg 81%
    18:00 +8°C° 0.2 mm 3 m/s 754 mmHg 78%
    19:00 +8°C° 0.2 mm 3 m/s 754 mmHg 76%
    20:00 +7°C° 0 mm 3 m/s 755 mmHg 75%
    21:00 +7°C° 0 mm 3 m/s 755 mmHg 75%
    22:00 +5°C° 0 mm 3 m/s 755 mmHg 75%
    23:00 +5°C° 0 mm 3 m/s 755 mmHg 77%

    23 Outubro, Terça-feira

    Tempo Temperatura Precipitação Vento Pressão Humidade
    00:00 +5°C° 0 mm 3 m/s 755 mmHg 79%
    01:00 +4°C° 0 mm 3 m/s 755 mmHg 81%
    02:00 +4°C° 0 mm 3 m/s 754 mmHg 83%
    03:00 +4°C° 0 mm 3 m/s 754 mmHg 84%
    04:00 +4°C° 0 mm 3 m/s 754 mmHg 86%
    05:00 +4°C° 0 mm 3 m/s 753 mmHg 85%
    06:00 +4°C° 0 mm 4 m/s 752 mmHg 85%
    07:00 +4°C° 0 mm 4 m/s 752 mmHg 85%
    08:00 +5°C° 0.1 mm 5 m/s 751 mmHg 80%
    09:00 +5°C° 0.1 mm 6 m/s 750 mmHg 76%
    10:00 +5°C° 0.1 mm 7 m/s 749 mmHg 72%
    11:00 +5°C° 0.6 mm 7 m/s 748 mmHg 74%
    12:00 +5°C° 0.6 mm 8 m/s 746 mmHg 77%
    13:00 +5°C° 0.6 mm 9 m/s 745 mmHg 79%
    14:00 +5°C° 1 mm 9 m/s 743 mmHg 80%
    15:00 +6°C° 1 mm 9 m/s 742 mmHg 82%
    16:00 +6°C° 1 mm 9 m/s 740 mmHg 83%
    17:00 +6°C° 1.8 mm 9 m/s 739 mmHg 84%
    18:00 +7°C° 1.8 mm 9 m/s 737 mmHg 85%
    19:00 +7°C° 1.8 mm 9 m/s 736 mmHg 87%
    20:00 +8°C° 2 mm 9 m/s 735 mmHg 85%
    21:00 +8°C° 2 mm 9 m/s 734 mmHg 83%
    22:00 +10°C° 2 mm 9 m/s 733 mmHg 82%
    23:00 +9°C° 0.4 mm 8 m/s 733 mmHg 80%

    24 Outubro, Quarta-feira

    Tempo Temperatura Precipitação Vento Pressão Humidade
    00:00 +9°C° 0.4 mm 8 m/s 733 mmHg 78%
    01:00 +7°C° 0.4 mm 8 m/s 734 mmHg 76%
    02:00 +6°C° 0.2 mm 8 m/s 735 mmHg 72%
    03:00 +6°C° 0.2 mm 9 m/s 736 mmHg 69%
    04:00 +5°C° 0.2 mm 9 m/s 737 mmHg 65%
    05:00 +4°C° 0 mm 8 m/s 737 mmHg 63%
    06:00 +2°C° 0 mm 8 m/s 738 mmHg 62%
    07:00 +3°C° 0 mm 7 m/s 739 mmHg 60%
    08:00 +2°C° 0 mm 8 m/s 740 mmHg 57%
    09:00 +3°C° 0 mm 9 m/s 741 mmHg 54%
    10:00 +5°C° 0 mm 10 m/s 741 mmHg 51%
    11:00 +5°C° 0 mm 9 m/s 742 mmHg 50%
    12:00 +5°C° 0 mm 9 m/s 742 mmHg 49%
    13:00 +6°C° 0 mm 9 m/s 743 mmHg 49%
    14:00 +5°C° 0 mm 8 m/s 743 mmHg 50%
    15:00 +5°C° 0 mm 7 m/s 743 mmHg 52%
    16:00 +4°C° 0 mm 6 m/s 744 mmHg 54%
    17:00 +4°C° 0 mm 6 m/s 744 mmHg 55%
    18:00 +3°C° 0 mm 5 m/s 744 mmHg 57%
    19:00 +4°C° 0 mm 4 m/s 744 mmHg 59%
    20:00 +4°C° 0 mm 4 m/s 744 mmHg 60%
    21:00 +3°C° 0 mm 4 m/s 745 mmHg 61%
    22:00 +3°C° 0 mm 4 m/s 745 mmHg 62%
    23:00 +3°C° 0 mm 3 m/s 745 mmHg 64%

    25 Outubro, Quinta-feira

    Tempo Temperatura Precipitação Vento Pressão Humidade
    00:00 +3°C° 0 mm 3 m/s 745 mmHg 65%
    01:00 +2°C° 0 mm 3 m/s 744 mmHg 66%
    02:00 +2°C° 0 mm 3 m/s 744 mmHg 67%
    03:00 +2°C° 0 mm 3 m/s 744 mmHg 68%
    04:00 +2°C° 0 mm 3 m/s 744 mmHg 69%
    05:00 +3°C° 0.1 mm 3 m/s 743 mmHg 72%
    06:00 +3°C° 0.1 mm 3 m/s 743 mmHg 75%
    07:00 +4°C° 0.1 mm 3 m/s 743 mmHg 78%
    08:00 +5°C° 0.6 mm 3 m/s 743 mmHg 82%
    09:00 +6°C° 0.6 mm 4 m/s 742 mmHg 85%
    10:00 +6°C° 0.6 mm 5 m/s 742 mmHg 89%
    11:00 +7°C° 0.2 mm 5 m/s 742 mmHg 86%
    12:00 +8°C° 0.2 mm 6 m/s 741 mmHg 82%
    13:00 +9°C° 0.2 mm 7 m/s 741 mmHg 79%
    14:00 +9°C° 0.1 mm 7 m/s 741 mmHg 80%
    15:00 +9°C° 0.1 mm 7 m/s 741 mmHg 81%
    16:00 +9°C° 0.1 mm 6 m/s 740 mmHg 82%
    17:00 +9°C° 0.1 mm 6 m/s 740 mmHg 81%
    18:00 +9°C° 0.1 mm 6 m/s 740 mmHg 79%
    19:00 +9°C° 0.1 mm 7 m/s 740 mmHg 78%
    20:00 +9°C° 0.1 mm 7 m/s 740 mmHg 79%
    21:00 +9°C° 0.1 mm 7 m/s 740 mmHg 81%
    22:00 +9°C° 0.1 mm 7 m/s 740 mmHg 82%
    23:00 +9°C° 0.4 mm 7 m/s 739 mmHg 81%
    Mostrar mais